[[{"header":{"parameterUnit":"m.s-1","parameterCategory":1,"la1":30.2991,"la2":30.254,"lo1":-89.0895,"lo2":-89.0444,"dy":0.0017,"dx":0.0017,"nx":28,"ny":28,"refTime":"2024-06-23T21:00:00:Z","depth":0,"parameterNumber":2,"parameterNumberName":"U-component_of_WINDS"},"data":[0,0,0,0,0,0,0,0,0,0,0,0,0,0,0,0,0,0,0,0,0,0,0,0,0,0,0,0,0,0,0,0,0,0,0,0,0,0,0,0,0,0,0,0,0,0,0,0,0,0,0,0,0,0,0,0,0,0,3.5439,3.5441,0,3.563,3.5632,3.5634,3.5641,3.5639,3.5637,3.5634,3.5835,3.5843,3.585,0,0,0,0,0,0,0,0,0,0,0,0,0,3.5084,3.509,3.5438,3.5441,3.5443,3.5629,3.5632,3.5634,3.5642,3.5639,3.5636,3.5633,3.5833,3.5842,3.5851,0,0,0,0,0,0,0,0,0,0,0,0,0,3.5253,3.5092,3.5438,3.5469,3.5474,3.5629,3.5632,3.5635,3.5642,3.5639,3.5635,3.5632,3.583,3.5841,3.5852,3.599,0,0,3.5886,3.5891,0,0,0,0,0,0,0,0,3.5243,3.5266,3.5462,3.5467,3.5473,3.5608,3.558,3.5754,3.5643,3.5578,3.5634,3.563,3.5763,3.5779,3.5823,3.6,3.6008,3.5887,3.5894,3.5899,3.5902,0,0,0,0,0,0,0,3.5231,3.5258,3.5514,3.5465,3.5472,3.5475,3.5495,3.5613,3.5688,3.5584,3.5585,3.5607,3.5765,3.5812,3.5828,3.6011,3.5887,3.5897,3.5904,3.5908,3.631,3.6313,0,0,0,0,0,0,3.5213,3.5248,3.5508,3.552,3.5347,3.5484,3.5506,3.5568,3.5687,3.5701,3.561,3.5607,3.5795,3.5815,3.5835,3.6003,3.5899,3.5909,3.5916,3.6306,3.6311,3.6315,0,0,0,0,0,0,3.5205,3.5236,3.55,3.5384,3.5418,3.5494,3.5563,3.5574,3.5621,3.5706,3.572,3.5644,3.5793,3.5819,3.5951,3.601,3.5914,3.5925,3.6301,3.6307,3.6313,3.6342,0,0,0,0,0,0,3.5195,3.5233,3.5286,3.5385,3.5424,3.5612,3.5567,3.558,3.5639,3.5637,3.5742,3.5756,3.5792,3.5934,3.5962,3.6024,3.5933,3.6296,3.6304,3.6311,3.6336,3.6348,3.6358,0,0,0,0,0,3.5182,3.5288,3.5289,3.532,3.5491,3.5616,3.5638,3.5676,3.5644,3.5698,3.5753,3.5752,3.5999,3.5947,3.5979,3.6045,3.6293,3.6302,3.631,3.6331,3.6345,3.6358,0,0,0,0,0,0,3.5196,3.5302,3.5303,3.5444,3.552,3.5617,3.5686,3.5691,3.5779,3.5774,3.5819,3.5842,3.5973,3.6023,3.5963,3.6185,3.6142,3.6158,3.6147,3.6162,3.6173,3.6158,3.5943,0,0,0,0,0,3.5215,3.5306,3.5394,3.551,3.5548,3.561,3.5666,3.5688,3.577,3.5803,3.5867,3.5948,3.6043,3.6106,3.6199,3.6343,3.6366,3.6404,3.6415,3.6424,3.6437,3.6516,3.6533,3.6344,3.6344,3.6344,0,0,3.5256,3.5325,3.538,3.5514,3.5576,3.5669,3.5637,3.5738,3.5808,3.5819,3.5946,3.5996,3.6089,3.6227,3.6292,3.6273,3.6494,3.6435,3.6442,3.645,3.6526,3.6544,3.656,3.635,3.6349,3.6348,0,0,3.5378,3.5439,3.5541,3.5603,3.5697,3.5737,3.5761,3.5857,3.589,3.6018,3.6027,3.6112,3.6276,3.6341,3.6396,3.6541,3.6543,3.657,3.6628,3.6704,3.6719,3.6733,3.6783,3.6801,3.6583,3.6583,3.6583,0,3.5417,3.5557,3.5594,3.5694,3.5752,3.5764,3.5868,3.5927,3.6046,3.6087,3.6064,3.6268,3.6332,3.6485,3.652,3.6564,3.6594,3.6558,3.6714,3.6728,3.6741,3.6789,3.6808,3.6585,3.6585,3.6585,3.6584,0,3.5601,3.5698,3.5769,3.5881,3.5948,3.605,3.6102,3.6166,3.6182,3.6225,3.6355,3.6432,3.6539,3.6578,3.6596,3.6733,3.6718,3.6704,3.6662,3.6761,3.6807,3.6826,3.6589,3.6588,3.6587,3.6586,0,0,3.5737,3.5866,3.5892,3.5942,3.6045,3.6122,3.6224,3.6327,3.638,3.6462,3.6548,3.6686,3.6673,3.6735,3.6761,3.6828,3.6935,3.6806,3.6808,3.6826,3.709,3.7098,3.7119,3.6938,3.6942,3.6945,3.7081,0,3.5869,3.6049,3.6084,3.624,3.633,3.6341,3.643,3.6503,3.6546,3.663,3.6678,3.6774,3.675,3.6787,3.6854,3.6908,3.6989,3.6899,3.7019,3.7023,3.6994,3.7144,3.7154,3.7279,3.71,3.7103,3.7105,0,3.6048,3.6131,3.6295,3.6384,3.6423,3.6502,3.6598,3.6678,3.6761,3.6788,3.6856,3.6873,3.698,3.6934,3.7082,3.702,3.7071,3.7105,3.7111,3.7123,3.7069,3.7158,3.732,3.7338,3.7134,3.7132,3.713,0,3.6128,3.6282,3.64,3.6443,3.655,3.6605,3.6653,3.6732,3.6791,3.6876,3.6915,3.7012,3.7065,3.714,3.7184,3.7146,3.7328,3.7286,3.7353,3.7352,3.7391,3.7387,3.7561,3.7426,3.7426,3.7425,3.7425,0,3.6272,3.6372,3.6437,3.651,3.6622,3.6662,3.6772,3.6819,3.689,3.6972,3.6989,3.7066,3.7119,3.7204,3.724,3.7356,3.7381,3.7405,3.7413,3.7403,3.7399,3.7436,3.7428,3.743,3.7429,3.7428,3.7427,0,3.6381,3.6429,3.6558,3.6648,3.6673,3.6751,3.6829,3.69,3.6942,3.7046,3.7073,3.714,3.7241,3.7291,3.7418,3.7441,3.7572,3.7575,3.7543,3.7546,3.761,3.7602,3.7813,3.7842,3.7688,3.7689,3.7691,0,3.6469,3.6545,3.6642,3.6697,3.6745,3.6835,3.6894,3.6936,3.6998,3.7097,3.7156,3.7257,3.734,3.75,3.7561,3.7657,3.7662,3.7729,3.7677,3.7664,3.7662,3.7656,3.7663,3.7738,3.774,3.7741,3.7742,0,3.6619,3.6638,3.6722,3.6814,3.6884,3.6959,3.7034,3.7078,3.7133,3.7201,3.7302,3.7366,3.7493,3.7593,3.7694,3.7744,3.7752,3.7758,3.7778,3.7768,3.7745,3.7757,3.7567,3.7753,3.7752,3.7751,3.775,3.775,3.6719,3.6787,3.6865,3.6958,3.7017,3.7086,3.7156,3.7206,3.7291,3.7396,3.7416,3.7523,3.7604,3.7739,3.7792,3.7877,3.7863,3.7893,3.7901,3.7907,3.7909,3.7732,3.7896,3.7896,3.7896,3.7896,3.7896,0,3.6868,3.6919,3.7003,3.7105,3.7178,3.7177,3.7259,3.732,3.7414,3.7487,3.7567,3.7683,3.778,3.7847,3.7945,3.8,3.8007,3.8025,3.802,3.8032,3.7917,3.7889,3.8018,3.8018,3.8018,3.8018,3.8018,3.8018,3.6955,3.7068,3.7097,3.724,3.729,3.7394,3.744,3.7503,3.7562,3.769,3.7769,3.7811,3.7883,3.7985,3.8074,3.8091,3.8126,3.8144,3.8161,3.8053,3.804,3.8028,3.8001,3.8152,3.8152,3.8269,3.827,3.827]},{"header":{"parameterUnit":"m.s-1","parameterCategory":1,"la1":30.2991,"la2":30.254,"lo1":-89.0895,"lo2":-89.0444,"dy":0.0017,"dx":0.0017,"nx":28,"ny":28,"refTime":"2024-06-23T21:00:00:Z","depth":0,"parameterNumber":3,"parameterNumberName":"V-component_of_WINDS"},"data":[0,0,0,0,0,0,0,0,0,0,0,0,0,0,0,0,0,0,0,0,0,0,0,0,0,0,0,0,0,0,0,0,0,0,0,0,0,0,0,0,0,0,0,0,0,0,0,0,0,0,0,0,0,0,0,0,0,0,0.7301,0.73,0,0.7275,0.7275,0.7275,0.7251,0.725,0.725,0.725,0.7223,0.7223,0.7222,0,0,0,0,0,0,0,0,0,0,0,0,0,0.7327,0.7326,0.7301,0.73,0.73,0.7275,0.7275,0.7275,0.7251,0.725,0.725,0.725,0.7223,0.7223,0.7222,0,0,0,0,0,0,0,0,0,0,0,0,0,0.731,0.7326,0.7301,0.7285,0.7283,0.7276,0.7275,0.7275,0.7251,0.725,0.725,0.7249,0.7224,0.7223,0.7222,0.7228,0,0,0.722,0.722,0,0,0,0,0,0,0,0,0.7311,0.7309,0.7288,0.7286,0.7284,0.7266,0.7274,0.7259,0.7251,0.7263,0.725,0.7249,0.7238,0.7236,0.7232,0.7226,0.7225,0.722,0.722,0.722,0.722,0,0,0,0,0,0,0,0.7312,0.731,0.7291,0.7287,0.7285,0.7279,0.7276,0.7271,0.7253,0.7262,0.726,0.7258,0.7237,0.7233,0.7231,0.7225,0.722,0.722,0.7219,0.7219,0.7221,0.7221,0,0,0,0,0,0,0.7316,0.7311,0.7291,0.729,0.7297,0.7279,0.7276,0.7272,0.7253,0.725,0.7258,0.7257,0.7234,0.7232,0.723,0.7235,0.722,0.7219,0.7219,0.7221,0.7221,0.7222,0,0,0,0,0,0,0.7316,0.7314,0.7292,0.73,0.7297,0.7279,0.7275,0.7272,0.7268,0.725,0.7247,0.7258,0.7234,0.7231,0.7228,0.7234,0.7219,0.7218,0.722,0.7221,0.7221,0.7244,0,0,0,0,0,0,0.7317,0.7315,0.7317,0.73,0.7296,0.7291,0.7276,0.7272,0.7267,0.7265,0.7249,0.7246,0.7233,0.7229,0.7228,0.7232,0.7218,0.722,0.722,0.7221,0.7243,0.7245,0.7248,0,0,0,0,0,0.7318,0.7324,0.7317,0.7315,0.7299,0.7292,0.729,0.7275,0.7268,0.7269,0.7258,0.7246,0.7233,0.7229,0.7227,0.7232,0.7219,0.722,0.7221,0.7242,0.7245,0.7248,0,0,0,0,0,0,0.7342,0.7322,0.7314,0.7315,0.7305,0.7288,0.729,0.7279,0.7271,0.727,0.7252,0.7248,0.7247,0.7239,0.7235,0.7235,0.7224,0.7225,0.7241,0.7244,0.7246,0.7248,0.7217,0,0,0,0,0,0.7347,0.7344,0.7326,0.7329,0.7324,0.7308,0.7304,0.7294,0.7283,0.7279,0.7267,0.7257,0.725,0.7247,0.724,0.7241,0.7237,0.7243,0.7246,0.7248,0.7249,0.7248,0.725,0.7225,0.7225,0.7225,0,0,0.7358,0.7347,0.7346,0.7333,0.7324,0.7321,0.7305,0.7301,0.7298,0.7278,0.7275,0.7266,0.7253,0.7252,0.7251,0.7246,0.7255,0.7249,0.7251,0.725,0.7249,0.7252,0.7254,0.7225,0.7225,0.7225,0,0,0.7377,0.7368,0.7369,0.736,0.7347,0.7336,0.7336,0.732,0.7314,0.731,0.7295,0.729,0.728,0.7271,0.7265,0.7279,0.7268,0.7277,0.729,0.729,0.7292,0.7293,0.7298,0.73,0.7278,0.7278,0.7278,0,0.7392,0.7386,0.737,0.7368,0.7362,0.7344,0.7344,0.7337,0.7322,0.7319,0.7312,0.7298,0.7288,0.7285,0.7288,0.7284,0.7283,0.7279,0.7293,0.7294,0.7296,0.73,0.7301,0.7279,0.7279,0.7279,0.7279,0,0.7405,0.7401,0.7403,0.739,0.7384,0.7383,0.7367,0.7363,0.7353,0.7342,0.7338,0.7326,0.7316,0.7314,0.7304,0.7309,0.7305,0.7296,0.7285,0.7299,0.7303,0.7304,0.7281,0.728,0.728,0.728,0,0,0.7438,0.7416,0.7417,0.741,0.7394,0.739,0.7388,0.7378,0.7375,0.7365,0.7363,0.7353,0.7344,0.7338,0.7327,0.7326,0.7337,0.7317,0.7316,0.7321,0.7341,0.7348,0.735,0.7329,0.733,0.733,0.7342,0,0.7454,0.7449,0.7435,0.7434,0.743,0.7412,0.7409,0.7399,0.7389,0.7383,0.7371,0.7365,0.7354,0.735,0.7348,0.7336,0.7341,0.7335,0.7326,0.7326,0.733,0.7352,0.736,0.7372,0.7343,0.7343,0.7343,0,0.7471,0.7463,0.7462,0.7445,0.7443,0.7441,0.7431,0.7426,0.7413,0.7405,0.7398,0.7385,0.7381,0.737,0.7364,0.736,0.7355,0.7348,0.7348,0.7347,0.7336,0.7351,0.7375,0.7377,0.7345,0.7345,0.7345,0,0.7495,0.7484,0.7481,0.7476,0.7457,0.7456,0.7448,0.7435,0.743,0.742,0.7416,0.7406,0.7401,0.7393,0.7377,0.7371,0.7372,0.7361,0.7365,0.7366,0.7367,0.7367,0.739,0.7364,0.7364,0.7364,0.7364,0,0.7514,0.7514,0.7492,0.749,0.7489,0.7472,0.7472,0.7462,0.745,0.7446,0.743,0.7426,0.7406,0.74,0.7387,0.7383,0.7381,0.7374,0.7371,0.7376,0.7377,0.7373,0.7371,0.7364,0.7364,0.7364,0.7364,0,0.7541,0.7526,0.7522,0.7504,0.7499,0.75,0.7484,0.7481,0.747,0.7465,0.7462,0.7444,0.7436,0.7419,0.7406,0.7398,0.7397,0.7391,0.7401,0.7399,0.7405,0.7404,0.7426,0.7428,0.7401,0.7401,0.7401,0,0.7554,0.7553,0.7535,0.7531,0.7524,0.7518,0.7512,0.7495,0.749,0.7475,0.7474,0.7464,0.7456,0.7443,0.7428,0.7418,0.7412,0.742,0.741,0.7415,0.7412,0.7412,0.7411,0.7423,0.7423,0.7423,0.7424,0,0.7578,0.7571,0.7564,0.7554,0.7547,0.7539,0.7529,0.7527,0.7507,0.7501,0.7493,0.7486,0.7473,0.7463,0.7451,0.7441,0.7429,0.7427,0.7427,0.7432,0.7438,0.7434,0.7407,0.7426,0.7426,0.7426,0.7426,0.7426,0.7598,0.7597,0.7584,0.7576,0.7567,0.7558,0.7554,0.7542,0.7535,0.7523,0.7513,0.7505,0.7491,0.7473,0.7464,0.7457,0.7451,0.7452,0.7452,0.7453,0.7455,0.7439,0.7455,0.7455,0.7455,0.7455,0.7455,0,0.7622,0.7612,0.7605,0.7592,0.7586,0.7575,0.7563,0.7558,0.7552,0.754,0.7532,0.7521,0.7512,0.7496,0.7485,0.7482,0.7476,0.748,0.748,0.7478,0.7461,0.7461,0.7485,0.7485,0.7485,0.7485,0.7485,0.7485,0.7633,0.763,0.762,0.7612,0.7602,0.7595,0.7589,0.758,0.7571,0.756,0.7552,0.7542,0.7528,0.7516,0.7506,0.7501,0.7498,0.7503,0.7497,0.7482,0.7479,0.7476,0.7477,0.7503,0.7503,0.7514,0.7514,0.7514]}]]